Flag for Germany Weather past 2 weeks in Ennepetal, North Rhine-Westphalia, Germany

Now
75 °F

Sunny.


Feels Like: 77 °F
Forecast: 58 / 72 °F
Wind: 7 mph from East

Location: Dortmund / Wickede

Current Time: Jul 29, 2014 at 3:46:45 PM

Latest Report: Jul 29, 2014 at 3:20 PM


Visibility: 10 mi

Pressure: 29.83 "Hg

Humidity: 65%

Dew point: 63 °F

Location of EnnepetalLocation

Historic Weather in Ennepetal — Graph

°F

Ennepetal temperature yesterday

Maximum temperature yesterday: 79 °F (at 1:20 PM)
Minimum temperature yesterday: 61 °F (at 5:20 AM)
Average temperature yesterday: 70 °F

Past Weeks' High & Low Weather Summary

 TemperatureHumidityPressure
High90 °F (Jul 19, 1:20 PM)100% (Jul 21, 12:50 PM)30.18 "Hg (Jul 21, 12:50 PM)
Low55 °F (Jul 15, 5:20 AM)22% (Jul 19, 2:50 PM)29.77 "Hg (Jul 20, 5:20 AM)
Average71 °F65%29.99 "Hg
* Reported Jul 14 2:20 PM — Jul 29 2:50 PM, Ennepetal, Weather by CustomWeather, © 2014

Note: Actual official high and low records may vary slightly from our data, if they occured in-between our weather recording intervals... More about our weather records

Advertising

Ennepetal weather history for previous 24 hours

 ConditionsComfort  
Time TempWeatherWind HumidityBarometerVisibility
2:50 PM
Jul 29
75 °FClear.12 mph61%29.83 "Hg5 mi
2:20 PM75 °FClear.8 mph69%29.83 "Hg3 mi
1:50 PM73 °FClear.8 mph69%29.86 "Hg3 mi
1:20 PM72 °FBroken clouds.6 mph78%29.86 "Hg4 mi
12:50 PM72 °FBroken clouds.5 mph83%29.86 "Hg3 mi
12:20 PM72 °FPartly sunny.3 mph78%29.86 "Hg4 mi
11:50 AM72 °FPartly sunny.3 mph78%29.86 "Hg4 mi
11:20 AM70 °FFog.3 mph78%29.86 "Hg2 mi
10:50 AM70 °FFog.3 mph78%29.86 "Hg2 mi
10:20 AM68 °FFog.3 mph83%29.86 "Hg1 mi
9:50 AM66 °FFog.3 mph88%29.86 "Hg1 mi
9:20 AM64 °FFog.2 mph94%29.86 "Hg1 mi
8:50 AM64 °FFog.2 mph94%29.86 "Hg1 mi
8:20 AM64 °FFog.2 mph100%29.83 "Hg1 mi
7:50 AM63 °FFog.2 mph100%29.86 "Hg1 mi
7:20 AM63 °FFog.3 mph100%29.86 "Hg1 mi
6:50 AM61 °FFog.3 mph100%29.83 "Hg1 mi
6:20 AM61 °FFog.1 mph94%29.83 "Hg1 mi
5:50 AM61 °FFog.2 mph100%29.83 "Hg1 mi
5:20 AM61 °FFog.1 mph94%29.86 "Hg2 mi
10:50 PM
Jul 28
64 °FSprinkles. Passing clouds.7 mph88%29.89 "Hg4 mi
10:20 PM64 °FThundershowers. Partly sunny.3 mph88%29.89 "Hg4 mi
9:50 PM66 °FScattered showers. Partly sunny.12 mph88%29.92 "Hg5 mi
9:20 PM66 °FThundershowers. Partly sunny.3 mph88%29.89 "Hg5 mi
8:50 PM66 °FSprinkles. Partly sunny.5 mph88%29.89 "Hg4 mi
8:20 PM66 °FSprinkles. Partly sunny.3 mph88%29.86 "Hg5 mi
7:50 PM68 °FScattered showers. Partly sunny.3 mph83%29.89 "Hg4 mi
7:20 PM68 °FSprinkles. Partly sunny.6 mph88%29.86 "Hg3 mi
6:50 PM70 °FScattered clouds.5 mph83%29.86 "HgN/A
6:20 PM70 °FScattered clouds.6 mph78%29.86 "HgN/A
5:50 PM70 °FScattered clouds.6 mph78%29.83 "HgN/A
5:20 PM70 °FThundershowers. Partly sunny.9 mph73%29.83 "Hg4 mi
4:50 PM75 °FScattered clouds.5 mph74%29.80 "HgN/A
4:20 PM77 °FScattered clouds.3 mph69%29.83 "HgN/A
3:50 PM75 °FSprinkles. Scattered clouds.3 mph74%29.83 "HgN/A
3:20 PM77 °FRain showers. Partly sunny.5 mph65%29.86 "HgN/A
Weather by CustomWeather, © 2014

See weather overviewHow to use our weather pages